FW0923 Sarasota FL US current weather conditions

sailwx.info

Wind from 090

Air temperature 10.0° C
Dewpoint 6.0° C

Last reported at 2020-Jan-21 06:03 UTC.
Time now 2020-Jan-21 06:42 UTC

Location: N 27°25' W 082°33'.
View on Google Maps.

See reports from other nearby stations

  
Tides and Currents Weather Stations Pressure Air Temp Water Temp Dewpoint Dewpoint Depression Visibility Wind Speed Wind Dir Waves Ship Positions
date/time (UTC)wind fromknots sea level pressurealtimeterstation pressurevisibilityair tempwater tempwave heightnotes
2020-Jan-21 06:03 090 10.0
2020-Jan-21 05:53 068 0 gusting 2 10.0
2020-Jan-21 05:43 019 0 gusting 2 10.0
2020-Jan-21 05:33 027 0 gusting 2 10.0
2020-Jan-21 05:23 011 10.6
2020-Jan-21 05:13 058 0 gusting 2 10.6
2020-Jan-21 05:03 047 10.6
2020-Jan-21 04:53 053 0 gusting 3 10.6
2020-Jan-21 04:43 037 10.6
2020-Jan-21 04:33 347 10.6
2020-Jan-21 04:23 347 10.6
2020-Jan-21 04:13 347 10.6
2020-Jan-21 04:03 347 11.1
2020-Jan-21 03:53 347 11.1
2020-Jan-21 03:43 347 11.1
2020-Jan-21 03:33 347 11.1
2020-Jan-21 03:23 347 11.1
2020-Jan-21 03:13 347 11.1
2020-Jan-21 03:03 347 11.1
2020-Jan-21 02:53 347 11.1
2020-Jan-21 02:43 347 11.1
2020-Jan-21 02:33 347 11.7
2020-Jan-21 02:23 347 11.7
2020-Jan-21 02:13 347 11.7
2020-Jan-21 02:03 347 11.7
2020-Jan-21 01:53 347 11.7
2020-Jan-21 01:43 347 11.7
2020-Jan-21 01:33 347 11.7
2020-Jan-21 01:23 347 12.2
2020-Jan-21 01:13 347 12.2
2020-Jan-21 01:03 347 12.2
2020-Jan-21 00:53 347 12.2
2020-Jan-21 00:43 347 12.2
2020-Jan-21 00:33 347 12.2
2020-Jan-21 00:23 347 12.2
2020-Jan-21 00:13 347 0 gusting 1 12.2
2020-Jan-21 00:03 347 12.2
2020-Jan-20 23:53 347 12.8
2020-Jan-20 23:43 347 12.8
2020-Jan-20 23:33 347 12.8
2020-Jan-20 23:23 347 13.3
2020-Jan-20 23:13 347 13.3
2020-Jan-20 23:03 347 13.3
2020-Jan-20 22:53 347 13.9
2020-Jan-20 22:43 347 13.9
2020-Jan-20 22:33 360 0 gusting 2 14.4
2020-Jan-20 22:23 335 15.0
2020-Jan-20 22:13 331 15.0
2020-Jan-20 22:03 346 0 gusting 3 15.0
2020-Jan-20 21:53 345 0 gusting 3 15.6
2020-Jan-20 21:43 360 15.6
2020-Jan-20 21:33 346 1 gusting 4 15.6
2020-Jan-20 21:23 350 0 gusting 5 15.6
2020-Jan-20 21:13 339 0 gusting 2 16.1
2020-Jan-20 21:03 298 1 gusting 4 16.1
2020-Jan-20 20:53 351 0 gusting 2 16.1
2020-Jan-20 20:43 013 16.1
2020-Jan-20 20:33 334 0 gusting 3 16.1
2020-Jan-20 20:23 347 1 gusting 3 16.1
2020-Jan-20 20:13 313 0 gusting 2 16.1
2020-Jan-20 20:03 345 1 gusting 2 16.1
2020-Jan-20 19:53 360 0 gusting 3 17.2
2020-Jan-20 19:43 346 16.1
2020-Jan-20 19:33 348 1 gusting 3 16.7
2020-Jan-20 19:23 360 16.7
2020-Jan-20 19:13 028 0 gusting 4 16.7
2020-Jan-20 19:03 351 0 gusting 3 16.7
2020-Jan-20 18:53 015 0 gusting 4 16.1
2020-Jan-20 18:43 346 1 gusting 3 16.1
2020-Jan-20 18:33 010 1 gusting 3 16.1
2020-Jan-20 18:23 355 0 gusting 3 16.1
2020-Jan-20 18:13 341 0 gusting 3 16.7
2020-Jan-20 18:03 014 0 gusting 4 16.1
2020-Jan-20 17:53 355 0 gusting 2 16.1
2020-Jan-20 17:43 360 0 gusting 1 16.7
2020-Jan-20 17:33 338 16.1
2020-Jan-20 17:23 011 16.7
2020-Jan-20 17:13 017 0 gusting 1 15.6
2020-Jan-20 17:03 063 16.1
2020-Jan-20 16:53 330 16.1
2020-Jan-20 16:43 085 0 gusting 3 15.6
2020-Jan-20 16:33 045 15.0
2020-Jan-20 16:23 028 0 gusting 1 14.4
2020-Jan-20 16:13 063 0 gusting 5 14.4
2020-Jan-20 16:03 343 0 gusting 2 13.9
2020-Jan-20 15:53 340 0 gusting 3 13.3
2020-Jan-20 15:43 034 0 gusting 3 13.3
2020-Jan-20 15:33 038 0 gusting 2 13.9
2020-Jan-20 15:23 042 0 gusting 1 13.9
2020-Jan-20 15:13 022 0 gusting 2 12.8
2020-Jan-20 15:03 023 0 gusting 1 12.8
2020-Jan-20 14:53 351 0 gusting 2 12.2
2020-Jan-20 14:43 034 0 gusting 2 12.2
2020-Jan-20 14:33 041 1 gusting 3 11.7
2020-Jan-20 14:23 030 0 gusting 3 12.2
2020-Jan-20 14:13 005 0 gusting 3 11.7
2020-Jan-20 14:03 039 0 gusting 2 11.7
2020-Jan-20 13:53 028 0 gusting 2 11.7
2020-Jan-20 13:43 013 0 gusting 3 11.7
2020-Jan-20 13:33 011 0 gusting 2 11.1
2020-Jan-20 13:23 355 1 gusting 3 10.6
2020-Jan-20 13:13 034 0 gusting 2 10.0
2020-Jan-20 13:03 005 0 gusting 1 10.0
2020-Jan-20 12:53 351 0 gusting 2 10.0
2020-Jan-20 12:43 024 0 gusting 1 10.0
2020-Jan-20 12:33 022 10.0
2020-Jan-20 12:23 005 10.6
2020-Jan-20 12:13 038 0 gusting 2 10.6
2020-Jan-20 12:03 009 0 gusting 2 10.6
2020-Jan-20 11:53 360 0 gusting 2 10.6
2020-Jan-20 11:43 019 0 gusting 1 11.1
2020-Jan-20 11:33 035 11.1
2020-Jan-20 11:23 005 0 gusting 1 11.1
2020-Jan-20 11:13 020 0 gusting 3 11.7
2020-Jan-20 11:03 351 1 gusting 2 11.7
2020-Jan-20 10:53 346 0 gusting 2 11.7
2020-Jan-20 10:43 009 0 gusting 2 12.2
2020-Jan-20 10:33 005 0 gusting 2 12.8
2020-Jan-20 10:23 040 12.8
2020-Jan-20 10:13 040 0 gusting 2 13.3
2020-Jan-20 10:03 034 1 gusting 3 13.3
2020-Jan-20 09:53 355 1 gusting 3 13.9
2020-Jan-20 09:43 023 0 gusting 2 13.9
2020-Jan-20 09:33 342 0 gusting 1 14.4
2020-Jan-20 09:23 017 0 gusting 2 14.4
2020-Jan-20 09:13 019 0 gusting 2 15.0
2020-Jan-20 09:03 355 0 gusting 3 15.0
2020-Jan-20 08:53 355 0 gusting 3 15.0
2020-Jan-20 08:43 029 0 gusting 2 15.0
2020-Jan-20 08:33 355 1 gusting 2 15.6
2020-Jan-20 08:23 348 0 gusting 2 15.6
2020-Jan-20 08:13 350 15.6
2020-Jan-20 08:03 355 0 gusting 2 16.1
2020-Jan-20 07:53 351 1 gusting 4 16.1
2020-Jan-20 07:43 346 0 gusting 2 16.7
2020-Jan-20 07:33 346 0 gusting 2 16.7
2020-Jan-20 07:23 350 16.7
2020-Jan-20 07:13 350 17.2
2020-Jan-20 07:03 351 0 gusting 2 17.2
2020-Jan-20 06:53 355 0 gusting 2 17.2
2020-Jan-20 06:43 010 17.2
2020-Jan-20 06:33 005 17.2
2020-Jan-20 06:23 317 17.8
2020-Jan-20 06:13 005 0 gusting 2 17.8
2020-Jan-20 06:03 005 17.8
2020-Jan-20 05:53 005 18.3
2020-Jan-20 05:43 360 0 gusting 2 18.3
2020-Jan-20 05:33 360 18.3
2020-Jan-20 05:23 350 0 gusting 2 18.3
2020-Jan-20 05:13 301 0 gusting 2 18.3
2020-Jan-20 05:03 302 0 gusting 4 18.3
2020-Jan-20 04:53 350 18.9
2020-Jan-20 04:43 346 1 gusting 4 18.9
2020-Jan-20 04:33 360 1 gusting 3 18.9
2020-Jan-20 04:23 348 1 gusting 6 18.9
2020-Jan-20 04:13 343 1 gusting 3 18.9
2020-Jan-20 04:03 349 1 gusting 4 19.4
2020-Jan-20 03:53 340 0 gusting 4 19.4
2020-Jan-20 03:43 348 19.4
2020-Jan-20 03:33 314 0 gusting 3 20.0
2020-Jan-20 03:23 340 0 gusting 2 20.0
2020-Jan-20 03:13 324 20.6
2020-Jan-20 03:03 308 21.1
2020-Jan-20 02:53 340 21.1
2020-Jan-20 02:43 341 21.1
2020-Jan-20 02:33 341 21.1
2020-Jan-20 02:23 341 21.1
2020-Jan-20 02:13 341 21.1
2020-Jan-20 02:03 341 21.1
2020-Jan-20 01:53 291 21.1
2020-Jan-20 01:43 291 21.1
2020-Jan-20 01:33 291 21.1
2020-Jan-20 01:23 291 21.1
2020-Jan-20 01:13 291 21.1
2020-Jan-20 01:03 291 21.1
2020-Jan-20 00:53 291 21.1
2020-Jan-20 00:43 291 21.7
2020-Jan-20 00:33 291 21.7
2020-Jan-20 00:23 291 21.7
2020-Jan-20 00:13 291 21.7
2020-Jan-20 00:03 291 21.7
2020-Jan-19 23:53 291 21.7
2020-Jan-19 23:43 291 21.7
2020-Jan-19 23:33 291 22.2
2020-Jan-19 23:23 291 0 gusting 2 22.2
2020-Jan-19 23:13 257 22.2
2020-Jan-19 23:03 258 22.2
2020-Jan-19 22:53 275 0 gusting 3 22.2
2020-Jan-19 22:43 299 1 gusting 4 22.2
2020-Jan-19 22:33 215 0 gusting 4 22.2
2020-Jan-19 22:23 290 1 gusting 2 22.2
2020-Jan-19 22:13 250 1 gusting 3 22.8
2020-Jan-19 22:03 284 0 gusting 3 22.8
2020-Jan-19 21:53 272 1 gusting 5 22.8
2020-Jan-19 21:43 260 0 gusting 4 22.8
2020-Jan-19 21:33 225 1 gusting 4 22.8
2020-Jan-19 21:23 278 0 gusting 3 22.8
2020-Jan-19 21:13 173 1 gusting 6 22.8
2020-Jan-19 21:03 289 0 gusting 7 22.8
2020-Jan-19 20:53 223 1 gusting 4 23.3
2020-Jan-19 20:43 344 1 gusting 5 23.3
2020-Jan-19 20:33 281 2 gusting 5 23.9
2020-Jan-19 20:23 219 1 gusting 6 23.9
2020-Jan-19 20:13 215 2 gusting 7 24.4
2020-Jan-19 20:03 318 0 gusting 6 24.4
2020-Jan-19 19:53 302 2 gusting 6 23.9
2020-Jan-19 19:43 188 1 gusting 7 23.9
2020-Jan-19 19:33 327 1 gusting 6 23.9
2020-Jan-19 19:23 125 0 gusting 6 23.9
2020-Jan-19 19:13 308 2 gusting 6 24.4
2020-Jan-19 19:03 215 3 gusting 7 24.4
2020-Jan-19 18:53 288 1 gusting 6 24.4
2020-Jan-19 18:43 196 1 gusting 8 23.3
2020-Jan-19 18:33 196 2 gusting 7 23.3
2020-Jan-19 18:23 132 1 gusting 6 23.3
2020-Jan-19 18:13 179 2 gusting 6 23.3
2020-Jan-19 18:03 155 1 gusting 9 23.3
2020-Jan-19 17:53 313 3 gusting 8 22.8
2020-Jan-19 17:43 284 2 gusting 8 23.3
2020-Jan-19 17:33 198 3 gusting 8 23.3
2020-Jan-19 17:23 225 2 gusting 7 23.3
2020-Jan-19 17:13 185 2 gusting 6 23.3
2020-Jan-19 17:03 246 2 gusting 6 23.3
2020-Jan-19 16:53 114 1 gusting 6 23.3
2020-Jan-19 16:43 240 1 gusting 8 23.9
2020-Jan-19 16:33 128 2 gusting 8 24.4
2020-Jan-19 16:23 159 4 gusting 13 25.0
2020-Jan-19 16:13 170 1 gusting 6 24.4
2020-Jan-19 16:03 297 2 gusting 5 23.3
2020-Jan-19 15:53 142 1 gusting 6 22.8
2020-Jan-19 15:43 164 2 gusting 7 23.3
2020-Jan-19 15:33 220 2 gusting 6 23.3
2020-Jan-19 15:23 053 3 gusting 6 23.3
2020-Jan-19 15:13 286 0 gusting 6 23.3
2020-Jan-19 15:03 105 0 gusting 2 22.2
2020-Jan-19 14:53 128 21.1
2020-Jan-19 14:43 133 0 gusting 2 20.6
2020-Jan-19 14:33 203 0 gusting 3 20.6
2020-Jan-19 14:23 121 0 gusting 2 20.0
2020-Jan-19 14:13 133 19.4
2020-Jan-19 14:03 152 19.4
2020-Jan-19 13:53 128 0 gusting 2 18.9
2020-Jan-19 13:43 123 18.3
2020-Jan-19 13:33 143 18.3
2020-Jan-19 13:23 137 17.8
2020-Jan-19 13:13 121 17.2
2020-Jan-19 13:03 121 16.7
2020-Jan-19 12:53 121 16.7
2020-Jan-19 12:43 121 16.1
2020-Jan-19 12:33 121 16.1
2020-Jan-19 12:23 121 16.1
2020-Jan-19 12:13 121 16.1
2020-Jan-19 12:03 121 16.1
2020-Jan-19 11:53 121 16.1
2020-Jan-19 11:43 121 16.1
2020-Jan-19 11:33 121 16.1
2020-Jan-19 11:23 121 16.7
2020-Jan-19 11:13 121 16.7
2020-Jan-19 11:03 121 16.7
2020-Jan-19 10:53 121 16.7
2020-Jan-19 10:43 121 17.2
2020-Jan-19 10:33 121 17.2
2020-Jan-19 10:23 121 17.2
2020-Jan-19 10:13 121 17.8
2020-Jan-19 10:03 121 17.8
2020-Jan-19 09:53 121 17.8
2020-Jan-19 09:43 121 17.8
2020-Jan-19 09:33 120 0 gusting 2 17.8
2020-Jan-19 09:23 159 17.2
2020-Jan-19 09:13 160 17.2
2020-Jan-19 09:03 160 17.2
2020-Jan-19 08:53 160 17.8
2020-Jan-19 08:43 170 17.8
2020-Jan-19 08:33 170 17.8
2020-Jan-19 08:23 120 17.2
2020-Jan-19 08:13 120 17.2
2020-Jan-19 08:03 120 17.8
2020-Jan-19 07:53 116 17.8
2020-Jan-19 07:43 117 17.8
2020-Jan-19 07:33 130 17.8
2020-Jan-19 07:23 144 17.8
2020-Jan-19 07:13 158 17.8
2020-Jan-19 07:03 132 17.8
2020-Jan-19 06:53 155 17.8
2020-Jan-19 06:43 151 1 gusting 3 17.8
2020-Jan-19 06:33 129 0 gusting 3 17.8
2020-Jan-19 06:23 134 0 gusting 2 17.8
2020-Jan-19 06:13 117 17.8
2020-Jan-19 06:03 117 17.8